Temp
74 73 73 73 73 73 71 71 71 70 70 71 71 72 73 74 75 74 73 74 74 73 73 72 73 73 73 74 73 72 71 70 67 71 70 71 72 73 76 74 75 76 79
72 72 73 73 73 73 72 72 70 69 69 69 70 72 73 75 74 74 74 75 74 73 74 73 73 77 72 72 71 71 71 71 70 67 70 70 70 73 74 74 80 84 82
71 72 72 71 71 72 71 71 71 72 72 71 72 73 74 74 73 73 73 73 73 74 73 72 73 73 72 72 72 71 71 73 70 68 69 70 72 74 74 79 78 76 82
70 71 70 70 70 71 71 70 71 72 71 71 72 73 70 68 68 69 70 71 73 74 74 74 73 73 72 72 73 71 71 70 69 68 67 68 70 72 72 70 71 72 72
69 69 69 69 70 70 70 70 71 71 71 71 69 68 66 65 65 64 67 68 71 74 74 74 70 70 69 68 69 70 71 68 68 67 66 67 67 68 68 70 70 70 71
68 68 69 69 69 69 70 71 70 71 70 70 67 65 63 63 62 63 65 66 68 71 72 72 68 68 68 67 67 67 68 70 68 67 67 67 67 68 70 70 69 68 68
68 69 70 69 69 69 70 70 68 69 69 65 60 59 60 61 61 62 65 67 68 70 69 69 68 67 63 64 66 68 67 66 66 67 67 67 67 69 70 69 68 68 68
68 69 69 69 68 68 68 67 67 67 66 62 60 59 62 61 59 60 66 69 68 64 65 63 60 59 58 62 66 66 67 66 65 68 65 66 66 67 66 68 67 68 69
67 68 69 69 68 66 66 66 66 66 65 63 62 60 61 58 57 59 65 67 63 59 60 61 60 59 59 59 64 64 64 65 66 65 64 63 62 62 64 66 66 66 65
61 62 65 66 65 64 64 63 64 66 66 64 61 60 60 58 57 57 60 62 61 63 59 60 60 59 56 56 62 60 61 61 60 63 66 67 66 67 65 64 65 64 64
60 60 61 63 63 63 62 62 63 64 64 62 62 58 58 57 56 55 56 59 58 59 59 60 60 57 54 54 54 58 58 57 61 62 63 66 66 67 69 66 61 61 59
59 59 59 60 63 64 64 62 61 63 62 61 58 56 58 57 56 54 54 55 58 59 57 57 57 54 52 54 56 55 56 59 59 59 59 59 59 60 61 62 63 62 63
59 58 59 60 61 61 60 59 60 61 64 63 62 59 58 59 58 54 54 55 56 57 56 54 53 52 55 57 57 57 58 56 55 55 52 52 53 55 56 57 59 59 58
53 53 54 55 54 54 57 54 54 57 57 59 57 57 56 54 56 55 52 50 53 52 52 53 56 57 57 56 58 57 57 55 53 51 51 52 54 55 56 55 55 57 52
52 53 52 53 51 48 46 47 51 50 50 54 53 53 55 54 54 48 48 50 47 48 50 57 58 54 54 54 53 53 53 52 52 49 50 50 53 54 53 53 54 52 50
51 51 52 51 49 48 47 47 47 47 46 45 46 49 50 48 46 45 43 43 43 45 50 50 50 50 51 50 49 49 49 51 48 50 48 49 49 50 51 52 52 49 47
51 51 52 52 51 49 47 47 46 44 46 45 44 45 45 47 45 43 42 43 44 47 48 50 49 50 48 48 48 48 47 47 48 48 48 47 48 48 47 47 47 46 45
53 54 51 52 52 51 51 50 49 47 47 47 46 45 44 44 44 43 42 45 48 47 48 49 51 49 48 47 47 47 46 47 45 46 45 45 45 45 45 43 44 42 43
54 53 52 51 51 52 51 51 51 48 48 47 44 45 45 44 43 43 43 46 47 48 47 48 48 48 47 47 46 45 45 45 43 43 41 41 41 41 41 42 42 43 42
54 56 54 51 50 50 50 50 49 48 47 46 46 46 45 45 46 46 47 47 48 47 47 47 47 47 46 46 45 44 44 44 41 41 41 41 41 40 40 40 40 41 42
53 52 57 51 50 49 50 50 50 48 48 46 47 47 46 47 48 48 48 47 47 47 47 47 46 46 45 45 45 44 43 42 41 40 39 38 38 38 38 38 45 45 45
53 53 54 54 51 50 50 50 50 49 48 48 47 47 45 47 47 48 48 48 48 48 48 47 46 45 45 45 44 43 41 40 39 39 38 38 38 38 37 38 40 39 39
53 52 53 52 55 54 52 51 50 50 49 48 47 47 46 47 46 48 49 48 47 47 47 47 46 45 44 44 44 43 41 39 39 39 38 37 37 37 38 37 39 38 38
53 53 53 51 52 52 51 51 53 50 50 48 48 48 47 47 47 48 48 48 47 47 47 46 46 46 43 42 41 40 40 39 39 39 38 37 36 38 37 37 37 38 42
51 51 51 51 52 53 53 53 52 51 51 50 50 50 50 48 48 49 48 48 48 47 47 47 46 46 45 42 40 39 38 38 38 38 37 37 37 39 37 36 36 38 42
49 50 49 47 48 50 50 50 50 50 51 52 50 50 50 49 48 49 48 49 47 47 47 45 46 47 45 43 42 39 34 35 38 36 36 35 35 35 35 36 36 37 41
MSLP
1017.57 1018.03 1018.34 1018.57 1018.84 1019.23 1019.36 1019.53 1019.55 1019.64 1019.56 1019.72 1019.88 1019.78 1019.78 1020.00 1019.75 1020.21 1020.46 1020.59 1020.65 1020.74 1020.77 1020.93 1020.96 1021.03 1020.94 1020.91 1021.22 1021.18 1021.12 1021.16 1021.26 1020.68 1020.26 1019.88 1019.41 1019.02 1018.40 1018.11 1017.77 1017.44 1017.14
1017.70 1018.01 1018.47 1018.42 1018.65 1018.88 1019.21 1019.33 1019.67 1019.76 1019.80 1019.83 1019.88 1019.98 1019.88 1019.77 1019.87 1020.16 1020.33 1020.45 1020.58 1020.76 1020.70 1020.79 1020.70 1020.62 1020.48 1020.51 1020.55 1020.51 1020.61 1020.58 1020.71 1020.78 1020.39 1020.18 1019.78 1019.05 1018.53 1018.40 1017.81 1017.33 1017.29
1017.74 1018.03 1018.39 1018.95 1018.83 1018.83 1019.05 1019.25 1019.46 1019.76 1019.73 1019.75 1019.78 1019.86 1019.82 1019.90 1020.05 1020.25 1020.46 1020.55 1020.55 1020.56 1020.57 1020.59 1020.49 1020.46 1020.37 1020.26 1020.28 1020.38 1020.40 1020.36 1020.39 1020.59 1020.57 1020.19 1019.71 1019.11 1018.69 1018.26 1018.10 1017.68 1017.20
1017.52 1018.14 1018.51 1018.85 1018.83 1018.80 1018.89 1019.15 1019.37 1019.56 1019.71 1019.73 1019.75 1019.82 1020.04 1020.19 1020.38 1020.52 1020.40 1020.45 1020.30 1020.29 1020.36 1020.39 1020.40 1020.37 1020.38 1020.29 1020.18 1020.18 1020.25 1020.40 1020.41 1020.54 1020.53 1020.20 1019.78 1019.17 1018.97 1018.89 1018.44 1018.04 1017.55
1017.11 1017.68 1018.13 1018.46 1018.62 1018.81 1019.05 1019.10 1019.45 1019.58 1019.71 1020.02 1020.08 1020.13 1020.28 1020.47 1020.72 1020.75 1020.52 1020.29 1020.17 1019.77 1020.16 1020.45 1020.53 1020.57 1020.32 1020.54 1020.47 1020.19 1020.18 1020.27 1020.30 1020.34 1020.23 1019.98 1019.74 1019.50 1019.43 1019.10 1018.76 1018.15 1017.49
1017.14 1017.66 1017.79 1018.21 1018.57 1018.86 1018.97 1019.24 1019.31 1019.52 1019.73 1020.00 1020.28 1020.52 1020.76 1020.77 1020.61 1020.38 1020.24 1020.33 1020.26 1020.13 1020.18 1020.40 1020.26 1020.50 1020.71 1020.53 1020.18 1020.11 1020.08 1020.10 1020.16 1020.20 1020.11 1020.11 1019.71 1019.45 1019.23 1019.05 1018.84 1018.49 1017.87
1017.34 1017.67 1017.86 1018.21 1018.83 1018.86 1018.92 1019.06 1019.22 1019.48 1019.76 1020.19 1020.74 1020.89 1021.17 1021.23 1021.02 1020.56 1020.08 1020.05 1020.21 1020.34 1020.42 1020.46 1020.78 1020.97 1020.90 1020.64 1020.44 1020.28 1019.98 1020.11 1020.22 1020.32 1020.41 1020.26 1019.91 1019.51 1019.41 1018.96 1018.75 1018.68 1018.33
1017.19 1017.57 1017.83 1018.16 1018.73 1018.84 1019.19 1019.25 1019.21 1019.37 1019.79 1020.61 1021.31 1021.44 1021.37 1021.22 1020.75 1020.40 1020.18 1020.34 1020.57 1020.66 1020.77 1020.83 1021.05 1021.22 1021.07 1020.93 1020.79 1020.63 1020.73 1020.56 1020.51 1020.43 1020.43 1020.19 1019.95 1019.52 1019.28 1018.89 1018.68 1018.59 1018.11
1017.39 1017.59 1017.98 1018.34 1018.76 1019.12 1019.48 1019.49 1019.59 1019.94 1020.24 1020.59 1021.17 1021.58 1021.55 1021.32 1021.11 1020.86 1020.71 1021.09 1021.16 1021.19 1021.14 1021.17 1021.24 1021.40 1021.40 1021.09 1020.98 1021.18 1021.02 1020.84 1020.48 1020.35 1020.03 1019.76 1019.69 1019.54 1019.11 1018.93 1018.88 1018.73 1018.65
1018.16 1018.28 1018.42 1018.51 1018.95 1019.42 1019.68 1019.89 1019.79 1019.87 1020.13 1020.68 1021.18 1021.65 1021.79 1021.75 1021.83 1021.38 1021.16 1021.22 1021.47 1021.51 1021.64 1021.72 1021.56 1021.74 1021.71 1021.59 1021.38 1021.48 1021.56 1021.50 1021.16 1020.55 1020.21 1020.03 1019.82 1019.66 1019.46 1019.51 1019.40 1019.41 1019.19
1018.90 1018.97 1019.12 1019.19 1019.50 1019.82 1019.92 1019.97 1019.99 1020.06 1020.52 1020.81 1021.40 1021.64 1021.78 1022.12 1022.26 1021.80 1021.72 1021.72 1021.74 1021.75 1021.98 1021.86 1021.72 1021.70 1021.73 1021.61 1021.55 1021.49 1021.74 1021.75 1021.44 1021.31 1021.06 1020.97 1020.62 1020.31 1020.12 1020.06 1020.06 1019.90 1019.62
1019.64 1019.97 1020.06 1020.16 1020.15 1020.16 1020.37 1020.32 1020.32 1020.48 1020.79 1021.38 1021.54 1022.26 1022.35 1022.33 1022.43 1022.64 1022.25 1022.08 1022.01 1022.12 1022.31 1022.18 1022.00 1021.85 1021.74 1021.58 1021.43 1021.40 1021.40 1021.45 1021.57 1021.72 1021.86 1021.90 1021.91 1021.71 1021.38 1021.04 1020.73 1020.49 1020.30
1020.48 1020.46 1020.60 1020.64 1020.84 1020.99 1020.94 1020.86 1021.01 1021.00 1021.02 1021.48 1021.85 1022.15 1022.60 1022.81 1022.99 1022.72 1022.70 1022.47 1022.37 1022.23 1022.48 1022.32 1022.09 1021.84 1021.65 1021.52 1021.73 1021.54 1021.53 1022.10 1022.34 1022.39 1022.78 1022.81 1022.61 1022.78 1022.22 1021.66 1021.46 1021.32 1021.12
1020.93 1021.17 1021.23 1021.27 1021.51 1021.59 1021.76 1021.49 1021.57 1022.03 1021.99 1021.80 1022.11 1022.40 1022.79 1023.00 1023.41 1023.22 1023.05 1022.85 1022.72 1022.55 1022.42 1022.01 1021.74 1021.77 1021.95 1022.26 1022.43 1022.39 1022.64 1022.81 1022.98 1023.12 1023.39 1023.27 1023.06 1022.64 1022.81 1022.60 1022.30 1022.12 1022.03
1021.21 1021.19 1021.66 1021.61 1021.92 1022.33 1022.60 1022.68 1022.37 1022.69 1022.79 1022.46 1022.66 1022.68 1022.82 1023.37 1023.60 1023.60 1023.69 1023.44 1022.97 1022.96 1022.76 1022.46 1022.28 1022.54 1022.78 1023.00 1023.24 1023.33 1023.63 1023.61 1023.60 1023.68 1023.65 1023.80 1023.73 1023.57 1023.43 1023.40 1023.26 1023.04 1023.09
1021.57 1021.20 1021.36 1021.81 1022.26 1022.68 1022.88 1023.11 1023.29 1023.11 1023.25 1022.85 1022.83 1022.76 1023.05 1023.20 1023.58 1023.71 1023.92 1023.62 1023.40 1023.10 1022.85 1023.23 1023.34 1023.46 1023.65 1023.84 1023.97 1024.27 1024.35 1024.27 1024.24 1024.24 1024.46 1024.63 1024.61 1024.53 1024.26 1024.10 1024.11 1024.06 1023.91
1021.35 1021.41 1021.64 1021.88 1022.27 1022.75 1023.10 1023.24 1023.53 1023.74 1023.54 1023.31 1023.33 1023.15 1022.83 1023.40 1023.67 1023.50 1023.54 1023.65 1023.12 1022.98 1023.01 1023.26 1023.48 1023.88 1024.09 1024.29 1024.51 1024.74 1025.06 1025.06 1024.97 1025.09 1025.36 1025.32 1025.12 1025.10 1025.03 1025.05 1024.90 1024.83 1024.68
1021.15 1021.24 1021.51 1021.58 1021.87 1022.18 1022.33 1022.50 1022.85 1023.05 1023.22 1023.31 1023.11 1023.14 1023.18 1023.47 1023.47 1023.45 1023.27 1022.86 1023.18 1023.13 1023.21 1023.44 1023.83 1024.08 1024.34 1024.68 1024.84 1024.99 1025.22 1025.37 1025.52 1025.75 1025.87 1025.86 1025.76 1025.79 1025.85 1025.84 1025.66 1025.55 1025.30
1020.64 1020.96 1021.15 1021.44 1021.54 1021.53 1021.66 1021.95 1022.29 1022.68 1023.06 1023.13 1023.32 1023.37 1023.24 1023.20 1023.11 1023.04 1023.14 1022.99 1022.95 1023.38 1023.63 1023.78 1024.06 1024.28 1024.58 1024.95 1025.23 1025.34 1025.56 1025.89 1026.15 1026.28 1026.50 1026.55 1026.54 1026.46 1026.41 1026.35 1026.27 1026.09 1025.71
1020.56 1020.51 1020.71 1021.19 1021.49 1021.62 1021.70 1021.83 1021.97 1022.23 1022.47 1022.71 1022.94 1022.97 1022.94 1023.03 1023.05 1023.20 1023.12 1023.02 1023.21 1023.58 1023.77 1024.01 1024.32 1024.53 1024.83 1025.11 1025.40 1025.67 1026.08 1026.48 1026.69 1026.80 1026.97 1027.01 1026.99 1026.94 1026.79 1026.57 1026.60 1026.36 1026.04
1020.21 1020.41 1020.52 1020.86 1021.19 1021.48 1021.50 1021.38 1021.34 1021.68 1021.88 1022.17 1022.32 1022.29 1022.41 1022.65 1022.84 1022.92 1023.17 1023.38 1023.38 1023.56 1023.74 1023.99 1024.32 1024.56 1024.89 1025.17 1025.48 1025.97 1026.39 1026.76 1026.92 1027.08 1027.19 1027.28 1027.18 1026.98 1026.93 1027.01 1026.66 1026.30 1026.02
1019.81 1020.01 1020.11 1020.33 1020.46 1020.76 1020.87 1020.92 1021.08 1021.13 1021.49 1021.71 1021.90 1021.88 1022.04 1022.36 1022.48 1022.50 1022.67 1022.92 1023.10 1023.16 1023.37 1023.79 1024.39 1024.61 1024.77 1025.01 1025.41 1025.98 1026.47 1026.82 1027.00 1027.09 1027.14 1027.20 1027.21 1027.16 1027.04 1026.89 1026.61 1026.35 1026.05
1019.40 1019.62 1019.71 1019.77 1019.91 1019.86 1019.96 1020.08 1020.55 1020.54 1020.78 1021.04 1021.15 1021.50 1021.77 1021.94 1022.14 1022.16 1022.22 1022.60 1022.88 1023.08 1023.37 1023.67 1024.13 1024.56 1024.79 1024.97 1025.27 1025.70 1026.25 1026.57 1026.74 1026.85 1027.03 1027.11 1027.13 1027.05 1026.97 1026.81 1026.52 1026.33 1026.15
1018.88 1019.03 1019.24 1019.40 1019.50 1019.57 1019.63 1019.62 1019.82 1019.87 1020.10 1020.29 1020.56 1020.86 1021.07 1021.27 1021.60 1021.79 1021.90 1022.37 1022.54 1022.81 1023.12 1023.45 1023.79 1024.16 1024.68 1025.06 1025.33 1025.56 1025.82 1026.09 1026.27 1026.45 1026.53 1026.70 1026.79 1026.74 1026.68 1026.62 1026.50 1026.29 1025.84
1018.68 1018.71 1018.87 1018.99 1019.09 1019.18 1019.05 1019.06 1019.20 1019.20 1019.35 1019.46 1019.89 1020.12 1020.25 1020.51 1020.95 1021.03 1021.36 1021.68 1022.07 1022.51 1022.83 1023.08 1023.41 1023.79 1024.24 1024.65 1025.05 1025.34 1025.53 1025.74 1025.97 1026.14 1026.33 1026.42 1026.45 1026.46 1026.47 1026.44 1026.26 1025.96 1025.57
1018.45 1018.51 1018.46 1018.55 1018.65 1018.61 1018.46 1018.71 1018.71 1018.79 1018.81 1018.53 1018.69 1019.02 1019.29 1019.73 1020.05 1020.27 1020.71 1021.26 1021.66 1022.06 1022.43 1022.77 1023.02 1023.27 1023.79 1024.29 1024.61 1024.89 1025.22 1025.47 1025.68 1025.84 1026.06 1026.25 1026.32 1026.30 1026.35 1026.25 1026.10 1025.86 1025.43
Wind_Speed
8 6 7 6 7 6 5 5 5 4 4 4 6 4 2 4 4 5 5 4 2 3 2 2 3 3 2 2 4 3 2 4 3 3 2 2 4 4 6 5 6 7 6
5 5 5 4 4 6 6 7 5 5 4 6 5 5 5 2 2 4 4 3 3 3 5 3 5 3 3 1 1 1 1 1 1 2 1 2 3 3 4 5 5 5 5
5 6 4 4 5 4 5 5 5 5 6 5 5 5 3 2 3 2 1 3 4 4 4 4 6 4 4 2 2 1 1 1 2 1 2 2 3 2 2 2 3 5 6
10 11 11 9 7 5 5 5 5 3 2 2 3 2 5 5 5 3 3 3 4 1 4 4 5 3 3 4 3 3 3 2 1 1 3 3 2 2 1 2 4 2 4
9 8 7 6 5 5 4 4 2 3 1 1 5 5 5 4 2 2 1 2 4 4 2 2 5 6 10 7 3 4 3 2 1 1 2 2 2 3 2 2 3 3 4
5 4 5 6 4 4 4 4 5 3 2 4 6 6 3 3 6 4 1 1 4 4 4 5 5 6 4 3 5 6 7 3 2 1 1 2 3 3 2 2 2 3 5
9 6 6 6 5 4 4 5 3 3 4 6 6 6 5 4 8 7 2 2 2 1 2 4 4 3 5 5 8 7 7 5 4 2 3 2 4 2 4 4 2 1 3
7 7 6 6 6 6 5 4 4 3 7 7 6 5 4 3 9 8 8 4 6 5 6 6 6 4 6 6 5 5 4 5 5 3 2 5 5 7 5 4 3 4 4
6 7 7 8 7 6 5 4 3 5 6 5 5 5 5 5 10 8 7 4 5 6 5 6 5 5 5 7 5 5 5 5 6 8 8 7 7 8 6 3 4 3 2
6 6 5 7 7 7 5 3 1 3 6 5 6 5 7 6 8 9 6 4 5 4 3 3 7 5 5 6 4 3 4 4 6 7 6 7 8 9 10 7 4 4 2
5 7 6 6 5 5 3 2 3 6 6 6 5 4 6 5 5 9 9 4 3 3 2 1 2 7 7 4 2 2 3 4 5 4 5 6 7 8 8 7 6 4 3
5 4 5 5 3 3 4 3 4 5 7 5 6 4 2 3 5 7 8 9 4 2 2 3 4 8 8 6 3 3 5 4 4 5 6 7 6 7 7 7 9 7 7
4 5 5 5 4 4 4 4 3 3 4 4 5 5 4 2 2 7 7 7 8 3 1 5 9 3 7 10 12 13 10 6 4 7 5 4 3 4 5 4 5 7 7
6 4 4 4 5 5 3 3 4 3 3 3 3 3 4 3 1 2 2 3 5 4 6 4 5 10 9 6 7 8 5 4 4 4 3 2 3 5 7 5 6 8 4
5 4 4 3 4 4 4 4 3 2 2 3 2 3 5 3 2 1 3 0 2 2 4 2 3 4 6 6 6 5 5 4 5 4 5 5 5 6 6 5 6 5 6
2 1 2 3 3 2 2 3 8 5 6 7 5 2 1 2 6 6 4 3 3 2 3 3 3 4 6 4 5 4 4 6 4 6 5 5 5 6 6 7 6 6 6
2 1 2 3 4 4 3 4 3 2 3 3 2 1 1 5 6 4 4 3 5 3 3 4 5 5 4 4 4 4 3 4 5 6 5 5 5 5 6 6 6 5 5
4 5 2 4 4 4 4 5 4 4 2 2 4 2 1 5 5 3 3 2 2 4 2 5 6 5 4 5 4 4 4 5 5 5 6 5 5 5 6 6 6 5 6
5 4 3 3 3 5 4 4 4 4 4 3 1 2 4 4 2 1 2 2 3 5 4 5 4 5 5 5 4 5 5 5 4 5 4 4 4 4 4 5 5 10 10
5 7 6 2 3 3 3 4 4 5 5 4 4 4 2 1 1 1 2 3 5 5 4 5 4 5 5 5 5 5 5 5 4 4 4 4 4 4 5 6 5 7 7
4 3 3 2 3 3 4 4 4 4 4 5 6 5 8 5 5 4 3 4 5 5 5 5 5 5 5 5 5 5 5 4 4 4 4 3 3 4 4 3 6 7 6
5 5 4 5 4 5 5 5 4 4 5 5 5 4 10 3 4 4 5 5 5 5 5 5 5 4 5 5 5 6 5 5 4 4 4 3 3 2 2 3 4 4 4
5 5 5 4 6 6 5 5 5 5 5 6 5 5 5 5 5 4 5 5 5 5 5 5 6 5 4 4 5 6 6 5 4 4 3 2 1 2 2 3 4 4 5
5 6 6 5 4 6 6 5 5 7 6 6 6 6 6 5 5 6 6 6 5 5 5 5 5 7 6 5 5 5 5 5 4 4 5 2 2 3 2 2 3 4 6
5 5 5 5 6 7 4 6 6 6 6 6 8 7 7 6 6 6 6 6 6 6 6 6 5 8 10 11 8 8 8 10 6 6 3 3 3 5 2 2 4 5 7
4 5 4 5 5 4 4 5 4 4 5 5 6 7 8 7 6 7 7 8 7 6 7 5 6 9 11 9 10 11 9 11 8 7 4 2 2 3 2 4 6 5 8
Wind_Direction
182 171 167 171 169 157 176 190 188 206 229 219 206 242 227 245 238 191 196 200 234 299 300 280 273 244 251 189 180 184 171 175 168 306 198 287 290 307 311 287 282 284 282
182 149 175 155 144 161 177 190 190 215 215 214 219 228 231 211 171 218 225 221 209 247 258 276 280 278 297 277 240 17 32 320 132 250 287 291 247 293 300 317 341 7 320
136 134 184 205 195 198 182 155 150 209 232 233 222 224 224 9 10 22 331 279 250 235 249 260 273 283 287 275 279 290 252 120 135 154 278 263 265 281 323 301 331 328 334
158 174 192 197 208 196 172 180 169 206 223 243 256 94 101 91 67 27 33 300 213 287 269 277 287 267 267 280 267 258 229 244 183 226 259 259 248 300 341 321 329 299 311
145 155 170 174 164 159 159 161 260 279 341 309 97 79 85 84 70 309 280 316 281 212 266 85 71 63 60 33 297 283 252 253 278 287 298 322 324 338 309 273 268 287 288
129 175 162 157 168 182 161 169 174 194 201 118 121 119 96 49 354 349 342 298 322 271 232 154 123 65 346 340 344 297 248 211 244 236 260 269 263 248 258 274 305 345 334
169 171 159 148 179 188 161 142 120 171 134 107 100 98 75 27 351 316 226 186 191 288 115 121 93 55 14 359 345 359 52 23 6 353 330 301 306 319 320 303 307 272 269
153 155 146 143 140 114 106 111 97 80 117 123 122 126 114 46 10 7 15 122 88 66 76 86 95 65 29 7 19 51 48 31 21 23 332 283 277 294 267 257 276 286 284
116 127 138 140 122 110 120 122 116 117 118 123 125 116 85 40 13 36 65 69 80 83 91 89 92 76 28 25 59 26 15 16 342 346 329 313 317 323 337 342 21 35 339
71 82 87 103 111 115 124 106 56 131 126 119 106 94 86 71 19 42 69 91 99 108 99 67 69 59 23 30 64 48 18 352 349 355 6 8 17 19 35 40 7 23 341
74 71 68 84 103 118 127 119 126 120 119 117 112 102 97 68 48 54 46 66 73 84 58 58 30 9 0 17 33 61 61 326 348 29 30 24 25 26 20 17 15 38 33
88 93 84 64 57 103 124 119 95 129 135 133 117 100 95 98 79 40 57 65 29 86 31 330 323 346 17 23 57 83 61 69 59 58 48 31 20 14 3 4 5 12 37
83 87 85 83 58 35 68 50 65 106 133 156 161 159 145 113 60 48 38 55 45 105 341 298 297 330 96 64 54 64 64 61 55 59 44 28 18 340 346 13 18 357 43
100 91 81 91 71 44 45 52 82 43 59 65 62 94 140 143 69 13 13 19 21 22 350 359 18 88 80 75 62 57 62 61 69 76 55 18 349 27 27 7 22 7 38
140 141 134 111 103 88 53 26 68 38 12 118 135 122 133 174 219 55 300 335 67 16 333 1 66 54 80 72 60 56 47 41 53 47 52 35 29 29 28 15 24 19 35
161 136 158 135 137 130 112 67 26 46 1 31 30 155 88 99 152 191 220 219 258 266 81 77 66 82 88 84 79 68 45 54 43 59 50 43 41 33 33 26 25 23 18
181 230 238 184 179 178 190 187 199 285 298 320 332 36 185 188 201 191 201 265 151 136 96 121 117 110 106 97 96 85 69 48 67 64 61 44 39 41 35 25 23 18 10
209 223 225 219 211 218 208 206 190 191 190 245 259 237 183 194 203 199 308 114 71 53 96 119 119 115 109 98 83 88 79 70 65 63 57 46 39 39 33 23 17 10 3
189 201 206 232 230 224 224 197 203 192 206 183 191 231 228 221 260 347 57 98 130 113 107 104 114 111 103 99 97 88 88 79 75 70 55 49 32 39 40 26 16 13 8
218 212 190 218 242 231 207 189 181 195 199 190 197 210 189 125 87 28 19 68 98 109 120 117 120 117 113 107 99 97 88 80 76 72 65 56 42 42 39 24 14 6 3
217 236 246 230 257 264 247 233 207 179 202 191 208 204 194 173 181 178 156 154 144 139 136 123 124 118 116 114 108 102 102 101 89 83 71 54 41 38 25 356 12 360 346
190 210 213 232 230 228 227 229 235 205 200 197 217 221 188 198 193 213 171 160 166 149 141 129 132 137 139 134 121 119 117 115 106 98 83 68 51 14 326 302 320 307 315
206 200 206 210 225 221 219 217 227 226 200 202 191 183 180 201 199 205 167 157 159 148 138 130 137 137 126 128 128 139 140 151 150 139 128 115 338 294 287 295 304 331 336
209 214 218 226 251 240 225 219 223 214 200 186 184 188 188 195 197 196 171 162 159 152 151 145 153 148 139 135 138 142 144 150 151 159 155 168 266 294 292 309 319 321 326
234 213 208 215 233 252 245 241 227 214 206 177 190 197 198 195 191 178 168 167 158 158 166 163 163 157 160 157 158 160 167 161 163 173 174 200 252 284 287 291 299 300 302
245 240 217 199 210 223 225 229 219 240 231 207 184 194 194 192 193 175 166 166 163 163 163 172 174 163 159 165 168 172 170 180 180 189 173 192 255 293 290 284 292 285 298